| time (UTC) | temp F | wind direction | speed MPH | gust MPH | rain 1hr in | rain 24hr in | rain mn in | humidity % | barometer mb |
| 20260901014808 | 86 | 162 | 0.0 | 0.0 | 0.00 | 0.15 | 0.13 | 45 | 1010.7 |
| 20260901014308 | 86 | 165 | 0.0 | 0.0 | 0.00 | 0.15 | 0.13 | 45 | 1010.7 |
| 20260901014034 | 86 | 165 | 0.0 | 0.0 | 0.00 | 0.15 | 0.13 | 45 | 1010.7 |
| 20260901013307 | 86 | 165 | 0.0 | 0.0 | 0.00 | 0.15 | 0.13 | 44 | 1010.7 |
| 20260901012807 | 87 | 138 | 0.0 | 0.0 | 0.00 | 0.15 | 0.13 | 44 | 1010.8 |
| 20260901012308 | 87 | 142 | 0.0 | 0.0 | 0.00 | 0.15 | 0.13 | 44 | 1010.7 |
| 20260901011809 | 87 | 144 | 0.0 | 0.0 | 0.00 | 0.15 | 0.13 | 43 | 1010.8 |
| 20260901011304 | 87 | 125 | 0.0 | 0.0 | 0.00 | 0.15 | 0.13 | 43 | 1010.8 |
| 20260901010801 | 87 | 173 | 0.0 | 0.0 | 0.00 | 0.15 | 0.13 | 43 | 1011.0 |
| 20260901010301 | 87 | 140 | 0.0 | 0.0 | 0.00 | 0.15 | 0.13 | 43 | 1010.9 |
| 20260901010023 | 88 | 116 | 0.0 | 1.0 | 0.00 | 0.15 | 0.13 | 42 | 1010.8 |
| 20260901005300 | 88 | 169 | 0.0 | 10.0 | 0.00 | 0.15 | 0.13 | 42 | 1010.8 |
| 20260901005019 | 88 | 157 | 0.0 | 10.0 | 0.00 | 0.15 | 0.13 | 42 | 1010.6 |
| 20260901004301 | 88 | 168 | 0.0 | 3.0 | 0.00 | 0.15 | 0.13 | 42 | 1010.6 |
| 20260901003801 | 88 | 40 | 0.0 | 14.0 | 0.00 | 0.15 | 0.13 | 42 | 1010.6 |
| 20260901003302 | 88 | 5 | 0.0 | 14.0 | 0.00 | 0.15 | 0.13 | 42 | 1010.6 |
| 20260901002801 | 88 | 167 | 0.0 | 7.0 | 0.00 | 0.15 | 0.13 | 43 | 1010.7 |
| 20260901002301 | 88 | 165 | 0.0 | 7.0 | 0.00 | 0.15 | 0.13 | 43 | 1010.8 |
| 20260901001801 | 88 | 155 | 0.0 | 7.0 | 0.00 | 0.15 | 0.13 | 43 | 1010.9 |
| 20260901001524 | 88 | 124 | 0.0 | 7.0 | 0.00 | 0.15 | 0.13 | 43 | 1010.9 |
| 20260901000802 | 89 | 207 | 0.0 | 9.0 | 0.00 | 0.15 | 0.13 | 42 | 1010.9 |
| 20260901000303 | 89 | 132 | 0.0 | 9.0 | 0.00 | 0.15 | 0.13 | 42 | 1010.9 |
| 20260831235801 | 90 | 192 | 0.0 | 7.0 | 0.00 | 0.15 | 0.13 | 42 | 1010.9 |
| 20260831235749 | 90 | 15 | 0.0 | 7.0 | 0.00 | 0.15 | 0.13 | 42 | 1011.1 |
| 20260831235021 | 90 | 167 | 0.0 | 7.0 | 0.00 | 0.15 | 0.13 | 42 | 1011.1 |
| 20260831234301 | 89 | 159 | 0.0 | 7.0 | 0.00 | 0.15 | 0.13 | 42 | 1011.2 |
| 20260831233801 | 89 | 188 | 0.0 | 2.0 | 0.00 | 0.15 | 0.13 | 43 | 1011.1 |
| 20260831233301 | 89 | 80 | 0.0 | 4.0 | 0.00 | 0.15 | 0.13 | 44 | 1011.2 |
| 20260831233023 | 89 | 324 | 0.0 | 11.0 | 0.00 | 0.15 | 0.13 | 44 | 1011.2 |
| 20260831232305 | 89 | 164 | 0.0 | 11.0 | 0.00 | 0.15 | 0.13 | 44 | 1011.3 |
| 20260831231801 | 89 | 148 | 0.0 | 9.0 | 0.00 | 0.15 | 0.13 | 45 | 1011.2 |
| 20260831231302 | 88 | 332 | 0.0 | 8.0 | 0.00 | 0.15 | 0.13 | 46 | 1011.3 |
| 20260831230802 | 88 | 37 | 1.0 | 8.0 | 0.00 | 0.15 | 0.13 | 46 | 1011.4 |
| 20260831230300 | 88 | 344 | 1.0 | 7.0 | 0.00 | 0.15 | 0.13 | 45 | 1011.4 |
| 20260831225801 | 88 | 304 | 0.0 | 5.0 | 0.00 | 0.15 | 0.13 | 46 | 1011.3 |
| 20260831225306 | 88 | 247 | 0.0 | 2.0 | 0.00 | 0.15 | 0.13 | 47 | 1011.4 |
| 20260831224801 | 88 | 24 | 0.0 | 2.0 | 0.00 | 0.15 | 0.13 | 47 | 1011.3 |
| 20260831224521 | 87 | 190 | 0.0 | 6.0 | 0.00 | 0.15 | 0.13 | 48 | 1011.4 |
| 20260831223801 | 87 | 229 | 1.0 | 13.0 | 0.00 | 0.15 | 0.13 | 49 | 1011.5 |
| 20260831223302 | 86 | 76 | 2.0 | 13.0 | 0.00 | 0.15 | 0.13 | 51 | 1011.6 |
| 20260831222801 | 86 | 65 | 2.0 | 11.0 | 0.00 | 0.15 | 0.13 | 50 | 1011.7 |
| 20260831222301 | 86 | 336 | 1.0 | 10.0 | 0.00 | 0.15 | 0.13 | 50 | 1011.7 |
| 20260831221801 | 86 | 60 | 2.0 | 18.0 | 0.00 | 0.15 | 0.13 | 51 | 1011.9 |
| 20260831221301 | 85 | 0 | 2.0 | 18.0 | 0.00 | 0.15 | 0.13 | 51 | 1012.0 |
| 20260831220801 | 86 | 71 | 3.0 | 20.0 | 0.00 | 0.15 | 0.13 | 52 | 1012.3 |
| 20260831220300 | 86 | 60 | 2.0 | 20.0 | 0.00 | 0.15 | 0.13 | 51 | 1012.4 |
| 20260831215802 | 86 | 28 | 1.0 | 9.0 | 0.00 | 0.15 | 0.13 | 50 | 1012.4 |
| 20260831215301 | 86 | 355 | 0.0 | 9.0 | 0.00 | 0.15 | 0.13 | 50 | 1012.6 |
| 20260831214802 | 86 | 288 | 0.0 | 2.0 | 0.00 | 0.15 | 0.13 | 53 | 1012.8 |
| 20260831214301 | 85 | 355 | 0.0 | 4.0 | 0.00 | 0.15 | 0.13 | 54 | 1012.9 |
| 20260831213801 | 84 | 115 | 1.0 | 18.0 | 0.00 | 0.15 | 0.13 | 55 | 1013.2 |
| 20260831213301 | 84 | 25 | 2.0 | 18.0 | 0.00 | 0.15 | 0.13 | 55 | 1013.3 |
| 20260831212802 | 84 | 204 | 2.0 | 17.0 | 0.00 | 0.15 | 0.13 | 53 | 1013.4 |
| 20260831212301 | 84 | 30 | 1.0 | 11.0 | 0.00 | 0.15 | 0.13 | 54 | 1013.4 |
| 20260831212018 | 84 | 24 | 2.0 | 14.0 | 0.00 | 0.15 | 0.13 | 54 | 1013.7 |
| 20260831211301 | 85 | 51 | 2.0 | 14.0 | 0.00 | 0.15 | 0.13 | 53 | 1013.7 |
| 20260831210801 | 85 | 178 | 1.0 | 10.0 | 0.00 | 0.15 | 0.13 | 52 | 1013.7 |
| 20260831210527 | 85 | 124 | 1.0 | 10.0 | 0.00 | 0.15 | 0.13 | 53 | 1013.9 |
| 20260831210022 | 85 | 129 | 2.0 | 10.0 | 0.00 | 0.15 | 0.13 | 54 | 1014.0 |
| 20260831205300 | 85 | 131 | 2.0 | 13.0 | 0.00 | 0.15 | 0.13 | 53 | 1014.0 |
| 20260831204802 | 85 | 140 | 1.0 | 13.0 | 0.00 | 0.15 | 0.13 | 53 | 1014.1 |
| 20260831204302 | 85 | 137 | 0.0 | 6.0 | 0.00 | 0.15 | 0.13 | 53 | 1014.0 |
| 20260831203802 | 84 | 34 | 1.0 | 11.0 | 0.00 | 0.15 | 0.13 | 56 | 1014.1 |
| 20260831203521 | 83 | 123 | 2.0 | 11.0 | 0.00 | 0.15 | 0.13 | 56 | 1014.3 |
| 20260831202801 | 83 | 162 | 2.0 | 13.0 | 0.00 | 0.15 | 0.13 | 57 | 1014.3 |
| 20260831202301 | 83 | 135 | 3.0 | 14.0 | 0.00 | 0.15 | 0.13 | 60 | 1014.4 |
| 20260831201801 | 83 | 123 | 3.0 | 14.0 | 0.00 | 0.15 | 0.13 | 59 | 1014.4 |
| 20260831201301 | 82 | 116 | 3.0 | 20.0 | 0.00 | 0.15 | 0.13 | 61 | 1014.4 |
| 20260831201021 | 82 | 107 | 3.0 | 20.0 | 0.00 | 0.15 | 0.13 | 59 | 1014.4 |
| 20260831200300 | 82 | 121 | 1.0 | 10.0 | 0.00 | 0.15 | 0.13 | 63 | 1014.4 |
| 20260831195801 | 82 | 38 | 1.0 | 13.0 | 0.00 | 0.15 | 0.13 | 63 | 1014.4 |
| 20260831195301 | 81 | 169 | 1.0 | 13.0 | 0.00 | 0.15 | 0.13 | 65 | 1014.3 |
| 20260831194801 | 80 | 57 | 1.0 | 12.0 | 0.00 | 0.15 | 0.13 | 67 | 1014.3 |
| 20260831194301 | 80 | 53 | 1.0 | 12.0 | 0.00 | 0.15 | 0.13 | 68 | 1014.4 |
| 20260831193801 | 80 | 63 | 0.0 | 11.0 | 0.00 | 0.15 | 0.13 | 69 | 1014.5 |
| 20260831193302 | 79 | 71 | 0.0 | 11.0 | 0.00 | 0.15 | 0.13 | 70 | 1014.5 |
| 20260831192800 | 79 | 57 | 0.0 | 6.0 | 0.00 | 0.15 | 0.13 | 70 | 1014.5 |
| 20260831192300 | 79 | 57 | 0.0 | 6.0 | 0.00 | 0.15 | 0.13 | 70 | 1014.7 |
| 20260831191800 | 79 | 37 | 0.0 | 4.0 | 0.00 | 0.15 | 0.13 | 69 | 1014.8 |
| 20260831191527 | 79 | 66 | 0.0 | 6.0 | 0.00 | 0.15 | 0.13 | 70 | 1014.8 |
| 20260831190800 | 79 | 50 | 0.0 | 6.0 | 0.00 | 0.15 | 0.13 | 70 | 1014.9 |
| 20260831190301 | 79 | 63 | 0.0 | 1.0 | 0.00 | 0.15 | 0.13 | 70 | 1014.9 |
| 20260831190022 | 79 | 67 | 0.0 | 0.0 | 0.00 | 0.15 | 0.13 | 71 | 1015.0 |
| 20260831185300 | 79 | 53 | 0.0 | 2.0 | 0.00 | 0.15 | 0.13 | 71 | 1015.0 |
| 20260831184801 | 79 | 63 | 0.0 | 2.0 | 0.00 | 0.15 | 0.13 | 70 | 1015.0 |
| 20260831184744 | 79 | 81 | 0.0 | 0.0 | 0.00 | 0.15 | 0.13 | 70 | 1014.9 |
| 20260831183801 | 79 | 19 | 0.0 | 5.0 | 0.00 | 0.15 | 0.13 | 70 | 1014.9 |
| 20260831183301 | 79 | 51 | 0.0 | 5.0 | 0.00 | 0.15 | 0.13 | 69 | 1014.9 |
| 20260831182759 | 79 | 67 | 0.0 | 1.0 | 0.00 | 0.15 | 0.13 | 69 | 1015.0 |
| 20260831182300 | 79 | 37 | 0.0 | 3.0 | 0.00 | 0.15 | 0.13 | 69 | 1015.1 |
| 20260831181759 | 79 | 49 | 0.0 | 3.0 | 0.00 | 0.15 | 0.13 | 68 | 1015.0 |
| 20260831181259 | 79 | 71 | 0.0 | 1.0 | 0.00 | 0.15 | 0.13 | 68 | 1015.1 |
| 20260831181025 | 79 | 12 | 0.0 | 0.0 | 0.00 | 0.15 | 0.13 | 69 | 1015.1 |
| 20260831180257 | 78 | 315 | 0.0 | 0.0 | 0.00 | 0.15 | 0.13 | 70 | 1015.1 |
| 20260831175757 | 78 | 49 | 0.0 | 12.0 | 0.00 | 0.15 | 0.13 | 70 | 1014.9 |
| 20260831175257 | 78 | 40 | 1.0 | 14.0 | 0.00 | 0.15 | 0.13 | 69 | 1014.9 |
| 20260831175023 | 78 | 39 | 0.0 | 14.0 | 0.00 | 0.15 | 0.13 | 70 | 1014.9 |
| 20260831174520 | 77 | 48 | 0.0 | 4.0 | 0.00 | 0.15 | 0.13 | 72 | 1014.8 |
| 20260831173758 | 76 | 342 | 0.0 | 11.0 | 0.00 | 0.15 | 0.13 | 75 | 1014.8 |
| 20260831173256 | 76 | 0 | 0.0 | 11.0 | 0.00 | 0.15 | 0.13 | 77 | 1014.8 |
| 20260831172757 | 76 | 325 | 0.0 | 4.0 | 0.00 | 0.15 | 0.13 | 78 | 1014.8 |
| 20260831172257 | 76 | 9 | 0.0 | 4.0 | 0.00 | 0.15 | 0.13 | 79 | 1014.9 |
| 20260831171758 | 75 | 5 | 0.0 | 9.0 | 0.00 | 0.15 | 0.13 | 80 | 1014.8 |
| 20260831171257 | 75 | 32 | 0.0 | 9.0 | 0.00 | 0.15 | 0.13 | 80 | 1014.9 |
| 20260831170757 | 76 | 71 | 0.0 | 8.0 | 0.00 | 0.15 | 0.13 | 79 | 1015.0 |
| 20260831170739 | 76 | 85 | 0.0 | 4.0 | 0.00 | 0.15 | 0.13 | 79 | 1015.1 |
| 20260831165757 | 76 | 40 | 0.0 | 9.0 | 0.00 | 0.15 | 0.13 | 79 | 1015.2 |
| 20260831165257 | 76 | 33 | 0.0 | 9.0 | 0.00 | 0.15 | 0.13 | 78 | 1015.2 |
| 20260831164755 | 76 | 52 | 0.0 | 1.0 | 0.00 | 0.15 | 0.13 | 78 | 1015.2 |
| 20260831164254 | 76 | 32 | 1.0 | 11.0 | 0.00 | 0.15 | 0.13 | 78 | 1015.2 |
| 20260831163754 | 76 | 31 | 1.0 | 11.0 | 0.00 | 0.15 | 0.13 | 77 | 1014.8 |
| 20260831163513 | 76 | 49 | 2.0 | 18.0 | 0.00 | 0.15 | 0.13 | 78 | 1014.7 |
| 20260831163021 | 76 | 9 | 3.0 | 18.0 | 0.00 | 0.15 | 0.13 | 78 | 1014.7 |
| 20260831162253 | 76 | 32 | 2.0 | 17.0 | 0.00 | 0.15 | 0.13 | 78 | 1014.8 |
| 20260831162013 | 76 | 90 | 1.0 | 15.0 | 0.00 | 0.15 | 0.13 | 78 | 1014.7 |
| 20260831161242 | 76 | 17 | 0.0 | 10.0 | 0.00 | 0.15 | 0.13 | 77 | 1014.8 |
| 20260831161001 | 76 | 40 | 1.0 | 9.0 | 0.01 | 0.15 | 0.13 | 76 | 1014.9 |
| 20260831160238 | 76 | 82 | 1.0 | 9.0 | 0.01 | 0.15 | 0.13 | 74 | 1014.9 |
| 20260831155738 | 76 | 30 | 1.0 | 15.0 | 0.03 | 0.13 | 0.13 | 74 | 1014.9 |
| 20260831155501 | 76 | 51 | 2.0 | 15.0 | 0.03 | 0.13 | 0.13 | 75 | 1015.0 |
| 20260831154738 | 76 | 79 | 2.0 | 20.0 | 0.03 | 0.13 | 0.13 | 74 | 1014.9 |
| 20260831154239 | 76 | 0 | 3.0 | 20.0 | 0.03 | 0.13 | 0.13 | 75 | 1014.8 |
| 20260831153739 | 75 | 31 | 3.0 | 15.0 | 0.03 | 0.13 | 0.13 | 75 | 1014.8 |
| 20260831153502 | 75 | 53 | 3.0 | 15.0 | 0.03 | 0.13 | 0.13 | 76 | 1014.7 |
| 20260831152738 | 75 | 320 | 3.0 | 16.0 | 0.03 | 0.13 | 0.13 | 77 | 1014.6 |
| 20260831152234 | 76 | 17 | 1.0 | 18.0 | 0.04 | 0.13 | 0.13 | 77 | 1014.7 |
| 20260831151734 | 76 | 97 | 0.0 | 18.0 | 0.04 | 0.13 | 0.13 | 76 | 1014.7 |
| 20260831151234 | 76 | 276 | 0.0 | 10.0 | 0.07 | 0.13 | 0.13 | 76 | 1014.7 |
| 20260831150733 | 76 | 307 | 1.0 | 18.0 | 0.06 | 0.13 | 0.12 | 77 | 1014.8 |
| 20260831150231 | 76 | 19 | 1.0 | 18.0 | 0.10 | 0.13 | 0.12 | 76 | 1014.7 |
| 20260831145730 | 76 | 277 | 1.0 | 12.0 | 0.10 | 0.03 | 0.10 | 76 | 1014.6 |
| 20260831145455 | 76 | 321 | 0.0 | 12.0 | 0.10 | 0.03 | 0.10 | 77 | 1014.3 |
| 20260831144731 | 76 | 274 | 1.0 | 15.0 | 0.10 | 0.03 | 0.10 | 78 | 1014.5 |
| 20260831144230 | 76 | 214 | 2.0 | 15.0 | 0.10 | 0.03 | 0.10 | 79 | 1014.4 |
| 20260831143952 | 76 | 11 | 2.0 | 15.0 | 0.10 | 0.03 | 0.10 | 80 | 1014.1 |
| 20260831143456 | 75 | 5 | 1.0 | 15.0 | 0.10 | 0.03 | 0.10 | 79 | 1013.9 |
| 20260831142731 | 75 | 54 | 1.0 | 18.0 | 0.10 | 0.03 | 0.10 | 78 | 1013.5 |
| 20260831142230 | 76 | 78 | 3.0 | 25.0 | 0.09 | 0.03 | 0.09 | 77 | 1013.3 |
| 20260831141730 | 76 | 80 | 2.0 | 25.0 | 0.09 | 0.03 | 0.08 | 75 | 1013.3 |
| 20260831141230 | 77 | 55 | 1.0 | 15.0 | 0.06 | 0.03 | 0.06 | 73 | 1013.2 |
| 20260831140730 | 78 | 50 | 1.0 | 15.0 | 0.06 | 0.03 | 0.05 | 70 | 1013.2 |
| 20260831140230 | 79 | 34 | 1.0 | 21.0 | 0.02 | 0.03 | 0.02 | 67 | 1013.2 |
| 20260831135730 | 80 | 185 | 3.0 | 21.0 | 0.00 | 0.02 | 0.00 | 65 | 1013.0 |
| 20260831135230 | 80 | 138 | 2.0 | 12.0 | 0.00 | 0.02 | 0.00 | 63 | 1012.9 |
| 20260831134731 | 81 | 128 | 1.0 | 12.0 | 0.00 | 0.02 | 0.00 | 62 | 1012.8 |
| 20260831134231 | 81 | 150 | 0.0 | 12.0 | 0.00 | 0.02 | 0.00 | 61 | 1012.7 |
| 20260831133730 | 81 | 139 | 0.0 | 9.0 | 0.00 | 0.02 | 0.00 | 61 | 1012.6 |
| 20260831133230 | 81 | 206 | 0.0 | 4.0 | 0.00 | 0.02 | 0.00 | 60 | 1012.4 |
| 20260831132730 | 81 | 171 | 0.0 | 1.0 | 0.00 | 0.02 | 0.00 | 59 | 1012.4 |
| 20260831132230 | 81 | 150 | 0.0 | 1.0 | 0.00 | 0.02 | 0.00 | 58 | 1012.3 |
| 20260831131730 | 81 | 37 | 0.0 | 0.0 | 0.00 | 0.02 | 0.00 | 57 | 1012.1 |
| 20260831131229 | 81 | 28 | 0.0 | 0.0 | 0.00 | 0.02 | 0.00 | 57 | 1011.8 |
| 20260831130730 | 81 | 164 | 0.0 | 3.0 | 0.00 | 0.02 | 0.00 | 57 | 1011.6 |
| 20260831130230 | 81 | 76 | 0.0 | 3.0 | 0.00 | 0.02 | 0.00 | 57 | 1011.6 |
| 20260831125729 | 81 | 184 | 0.0 | 7.0 | 0.00 | 0.02 | 0.00 | 58 | 1011.6 |
| 20260831125229 | 80 | 148 | 0.0 | 7.0 | 0.00 | 0.02 | 0.00 | 59 | 1011.5 |
| 20260831124729 | 80 | 158 | 0.0 | 2.0 | 0.00 | 0.02 | 0.00 | 63 | 1011.5 |
| 20260831124229 | 80 | 211 | 0.0 | 0.0 | 0.00 | 0.02 | 0.00 | 65 | 1011.5 |
| 20260831123729 | 80 | 213 | 0.0 | 0.0 | 0.00 | 0.02 | 0.00 | 64 | 1011.4 |
| 20260831123229 | 80 | 216 | 0.0 | 0.0 | 0.00 | 0.02 | 0.00 | 64 | 1011.3 |
| 20260831122955 | 80 | 216 | 0.0 | 0.0 | 0.00 | 0.02 | 0.00 | 64 | 1011.1 |
| 20260831122229 | 80 | 217 | 0.0 | 0.0 | 0.00 | 0.02 | 0.00 | 64 | 1011.0 |
| 20260831121729 | 80 | 216 | 0.0 | 0.0 | 0.00 | 0.02 | 0.00 | 64 | 1011.0 |
| 20260831121229 | 80 | 217 | 0.0 | 0.0 | 0.00 | 0.02 | 0.00 | 64 | 1010.9 |
| 20260831120729 | 80 | 216 | 0.0 | 0.0 | 0.00 | 0.02 | 0.00 | 64 | 1010.9 |
| 20260831120229 | 80 | 216 | 0.0 | 0.0 | 0.00 | 0.02 | 0.00 | 64 | 1010.9 |
| 20260831115730 | 80 | 216 | 0.0 | 0.0 | 0.00 | 0.02 | 0.00 | 64 | 1011.0 |
| 20260831115230 | 80 | 216 | 0.0 | 0.0 | 0.00 | 0.02 | 0.00 | 63 | 1010.8 |
| 20260831114728 | 80 | 216 | 0.0 | 0.0 | 0.00 | 0.02 | 0.00 | 63 | 1010.7 |
| 20260831114222 | 80 | 216 | 0.0 | 0.0 | 0.00 | 0.02 | 0.00 | 63 | 1010.7 |
| 20260831113720 | 80 | 216 | 0.0 | 0.0 | 0.00 | 0.02 | 0.00 | 63 | 1010.8 |
| 20260831113220 | 80 | 275 | 0.0 | 0.0 | 0.00 | 0.02 | 0.00 | 63 | 1010.8 |
| 20260831112718 | 80 | 281 | 0.0 | 0.0 | 0.00 | 0.02 | 0.00 | 63 | 1010.8 |
| 20260831112215 | 80 | 282 | 0.0 | 0.0 | 0.00 | 0.02 | 0.00 | 63 | 1010.7 |
| 20260831111716 | 80 | 284 | 0.0 | 0.0 | 0.00 | 0.02 | 0.00 | 63 | 1010.3 |
| 20260831111216 | 80 | 284 | 0.0 | 0.0 | 0.00 | 0.02 | 0.00 | 63 | 1010.2 |
| 20260831110714 | 81 | 286 | 0.0 | 0.0 | 0.00 | 0.02 | 0.00 | 63 | 1010.1 |
| 20260831110212 | 81 | 284 | 0.0 | 0.0 | 0.00 | 0.02 | 0.00 | 63 | 1010.0 |
| 20260831105711 | 81 | 284 | 0.0 | 0.0 | 0.00 | 0.02 | 0.00 | 63 | 1009.9 |
| 20260831105211 | 81 | 282 | 0.0 | 0.0 | 0.00 | 0.02 | 0.00 | 63 | 1009.9 |
| 20260831104710 | 80 | 271 | 0.0 | 0.0 | 0.00 | 0.02 | 0.00 | 63 | 1009.8 |
| 20260831104210 | 80 | 298 | 0.0 | 0.0 | 0.00 | 0.02 | 0.00 | 63 | 1009.6 |
| 20260831103711 | 80 | 257 | 0.0 | 0.0 | 0.00 | 0.02 | 0.00 | 63 | 1009.7 |
| 20260831103207 | 80 | 230 | 0.0 | 0.0 | 0.00 | 0.02 | 0.00 | 63 | 1009.7 |
| 20260831102930 | 80 | 230 | 0.0 | 0.0 | 0.00 | 0.02 | 0.00 | 64 | 1009.8 |
| 20260831102208 | 80 | 227 | 0.0 | 0.0 | 0.00 | 0.02 | 0.00 | 64 | 1009.6 |
| 20260831101934 | 80 | 226 | 0.0 | 0.0 | 0.00 | 0.02 | 0.00 | 64 | 1009.7 |
| 20260831101206 | 81 | 227 | 0.0 | 0.0 | 0.00 | 0.02 | 0.00 | 63 | 1009.7 |
| 20260831100706 | 81 | 226 | 0.0 | 0.0 | 0.00 | 0.02 | 0.00 | 63 | 1009.7 |
| 20260831100206 | 81 | 225 | 0.0 | 0.0 | 0.00 | 0.02 | 0.00 | 63 | 1009.8 |
| 20260831095705 | 81 | 225 | 0.0 | 0.0 | 0.00 | 0.02 | 0.00 | 63 | 1009.8 |
| 20260831095205 | 81 | 215 | 0.0 | 0.0 | 0.00 | 0.02 | 0.00 | 63 | 1009.9 |
| 20260831094705 | 81 | 215 | 0.0 | 0.0 | 0.00 | 0.02 | 0.00 | 63 | 1009.9 |
| 20260831094432 | 81 | 211 | 0.0 | 0.0 | 0.00 | 0.02 | 0.00 | 62 | 1009.9 |
| 20260831093925 | 81 | 211 | 0.0 | 0.0 | 0.00 | 0.02 | 0.00 | 61 | 1010.1 |
| 20260831093201 | 82 | 172 | 0.0 | 0.0 | 0.00 | 0.02 | 0.00 | 61 | 1010.0 |
| 20260831092702 | 82 | 175 | 0.0 | 0.0 | 0.00 | 0.02 | 0.00 | 60 | 1010.1 |
| 20260831092202 | 82 | 181 | 0.0 | 0.0 | 0.00 | 0.02 | 0.00 | 58 | 1010.1 |
| 20260831091701 | 82 | 142 | 0.0 | 0.0 | 0.00 | 0.02 | 0.00 | 55 | 1010.0 |
| 20260831091427 | 82 | 142 | 0.0 | 0.0 | 0.00 | 0.02 | 0.00 | 55 | 1009.7 |
| 20260831090701 | 82 | 171 | 0.0 | 0.0 | 0.00 | 0.02 | 0.00 | 55 | 1009.8 |
| 20260831090202 | 82 | 190 | 0.0 | 1.0 | 0.00 | 0.02 | 0.00 | 56 | 1009.8 |
| 20260831085701 | 83 | 169 | 0.0 | 7.0 | 0.00 | 0.02 | 0.00 | 56 | 1009.9 |
| 20260831085201 | 83 | 148 | 4.0 | 18.0 | 0.00 | 0.02 | 0.00 | 55 | 1009.8 |
| 20260831084701 | 83 | 75 | 8.0 | 18.0 | 0.00 | 0.02 | 0.00 | 55 | 1009.5 |
| 20260831084202 | 83 | 35 | 7.0 | 16.0 | 0.00 | 0.02 | 0.00 | 55 | 1009.3 |
| 20260831083701 | 83 | 54 | 5.0 | 15.0 | 0.00 | 0.02 | 0.00 | 56 | 1009.3 |
| 20260831083202 | 83 | 47 | 5.0 | 18.0 | 0.00 | 0.02 | 0.00 | 55 | 1009.4 |
| 20260831082702 | 82 | 44 | 4.0 | 20.0 | 0.00 | 0.02 | 0.00 | 55 | 1009.5 |
| 20260831082201 | 82 | 40 | 3.0 | 20.0 | 0.00 | 0.02 | 0.00 | 56 | 1009.5 |
| 20260831081702 | 82 | 46 | 3.0 | 16.0 | 0.00 | 0.02 | 0.00 | 55 | 1009.6 |
| 20260831081432 | 82 | 40 | 3.0 | 17.0 | 0.00 | 0.02 | 0.00 | 54 | 1009.8 |
| 20260831080701 | 82 | 355 | 2.0 | 17.0 | 0.00 | 0.02 | 0.00 | 57 | 1009.9 |
| 20260831080427 | 81 | 355 | 1.0 | 9.0 | 0.00 | 0.02 | 0.00 | 60 | 1009.7 |
| 20260831075923 | 80 | 348 | 1.0 | 13.0 | 0.00 | 0.02 | 0.00 | 62 | 1009.7 |
| 20260831075201 | 80 | 10 | 3.0 | 13.0 | 0.00 | 0.02 | 0.00 | 64 | 1009.8 |
| 20260831074701 | 80 | 340 | 6.0 | 23.0 | 0.00 | 0.02 | 0.00 | 65 | 1010.1 |
| 20260831074200 | 80 | 338 | 7.0 | 23.0 | 0.00 | 0.02 | 0.00 | 65 | 1010.1 |
| 20260831073701 | 80 | 327 | 7.0 | 19.0 | 0.00 | 0.02 | 0.00 | 65 | 1010.1 |
| 20260831073201 | 80 | 330 | 8.0 | 20.0 | 0.00 | 0.02 | 0.00 | 66 | 1010.2 |
| 20260831072701 | 80 | 355 | 8.0 | 20.0 | 0.00 | 0.02 | 0.00 | 68 | 1010.3 |
| 20260831072154 | 80 | 342 | 7.0 | 22.0 | 0.01 | 0.02 | 0.00 | 68 | 1010.3 |
| 20260831071918 | 80 | 340 | 6.0 | 22.0 | 0.01 | 0.02 | 0.00 | 69 | 1010.4 |
| 20260831071149 | 80 | 349 | 4.0 | 14.0 | 0.01 | 0.02 | 0.00 | 71 | 1010.6 |
| 20260831070649 | 80 | 347 | 8.0 | 22.0 | 0.01 | 0.02 | 0.00 | 71 | 1010.6 |
| 20260831040211 | 99 | 222 | 0.0 | 0.0 | 0.00 | 0.00 | 0.00 | 31 | 1007.6 |
| 20260831035712 | 99 | 234 | 0.0 | 0.0 | 0.00 | 0.00 | 0.00 | 31 | 1007.5 |
| 20260831035436 | 99 | 234 | 0.0 | 0.0 | 0.00 | 0.00 | 0.00 | 31 | 1007.5 |
| 20260831034936 | 99 | 234 | 0.0 | 0.0 | 0.00 | 0.00 | 0.00 | 30 | 1007.6 |
| 20260831034211 | 99 | 227 | 0.0 | 0.0 | 0.00 | 0.00 | 0.00 | 30 | 1007.5 |
| 20260831033709 | 99 | 244 | 0.0 | 0.0 | 0.00 | 0.00 | 0.00 | 31 | 1007.4 |
| 20260831033209 | 99 | 246 | 0.0 | 0.0 | 0.00 | 0.00 | 0.00 | 31 | 1007.3 |
| 20260831032710 | 99 | 246 | 0.0 | 0.0 | 0.00 | 0.00 | 0.00 | 31 | 1007.4 |
| 20260831032210 | 100 | 246 | 0.0 | 0.0 | 0.00 | 0.00 | 0.00 | 31 | 1007.4 |
| 20260831031708 | 100 | 247 | 0.0 | 0.0 | 0.00 | 0.00 | 0.00 | 31 | 1007.4 |
| 20260831031208 | 100 | 248 | 0.0 | 0.0 | 0.00 | 0.00 | 0.00 | 31 | 1007.3 |
| 20260831030929 | 100 | 248 | 0.0 | 0.0 | 0.00 | 0.00 | 0.00 | 31 | 1007.3 |
| 20260831030202 | 100 | 247 | 0.0 | 0.0 | 0.00 | 0.00 | 0.00 | 31 | 1007.3 |
| 20260831025701 | 100 | 225 | 0.0 | 0.0 | 0.00 | 0.00 | 0.00 | 31 | 1007.2 |
| 20260831025201 | 100 | 237 | 0.0 | 0.0 | 0.00 | 0.00 | 0.00 | 31 | 1007.1 |
| 20260831024701 | 100 | 224 | 0.0 | 0.0 | 0.00 | 0.00 | 0.00 | 31 | 1007.1 |
| 20260831024202 | 100 | 259 | 0.0 | 0.0 | 0.00 | 0.00 | 0.00 | 31 | 1006.9 |
| 20260831023701 | 100 | 247 | 0.0 | 0.0 | 0.00 | 0.00 | 0.00 | 31 | 1006.9 |
| 20260831023202 | 100 | 219 | 0.0 | 0.0 | 0.00 | 0.00 | 0.00 | 31 | 1006.8 |
| 20260831022700 | 100 | 247 | 0.0 | 0.0 | 0.00 | 0.00 | 0.00 | 30 | 1006.7 |
| 20260831022201 | 100 | 243 | 0.0 | 0.0 | 0.00 | 0.00 | 0.00 | 31 | 1006.8 |
| 20260831021702 | 100 | 227 | 0.0 | 0.0 | 0.00 | 0.00 | 0.00 | 30 | 1006.7 |
| 20260831021202 | 101 | 251 | 0.0 | 0.0 | 0.00 | 0.00 | 0.00 | 30 | 1006.7 |
| 20260831020701 | 101 | 224 | 0.0 | 0.0 | 0.00 | 0.00 | 0.00 | 30 | 1006.5 |
| 20260831020201 | 101 | 236 | 0.0 | 0.0 | 0.00 | 0.00 | 0.00 | 30 | 1006.4 |
| 20260831015701 | 101 | 252 | 0.0 | 0.0 | 0.00 | 0.00 | 0.00 | 30 | 1006.3 |
| 20260831015201 | 101 | 212 | 0.0 | 1.0 | 0.00 | 0.00 | 0.00 | 30 | 1006.2 |